Terminal Aerodrome Forecast
Issued by NWS

Home | Current Version | Previous Version | Text Only | Print | Product List | Glossary On
Versions: 1 2 3 4 5 6 7 8 9 10 11 12 13 14 15 16 17 18 19 20
000
FTUS43 KDLH 141945 AAA
TAFHYR
TAF AMD
KHYR 141945Z 1420/1518 11004KT P6SM VCSH BKN016 OVC025
     FM142100 06005KT P6SM VCSH SCT030 BKN050
     FM150300 00000KT P6SM SCT120
     FM150500 00000KT 4SM BR SCT120
     FM150800 00000KT 3/4SM BR BKN003
     FM151300 08004KT P6SM SKC=

USA.gov is the U.S. government's official web portal to all federal, state and local government web resources and services.